sat.trackr.live / text

‹ back to catalog

HUANJING 1B (HJ-1B)

NORAD 33321 · 2008-041B

PAYLOAD ACTIVE UNKNOWN

§ Identity

Operator
Country
PRC
Launch date
2008-09-06
Launch site
TAISC
Launch vehicle
Mass (kg)
RCS (m²)
1.37

Purposes: earth_obs

External: N2YO · Heavens-Above · Gunter

§ Orbital elements

Epoch: 2026-05-25T04:46:58.890144Z

Period
97.08 min
Inclination
97.6516°
Eccentricity
0.0034702
Mean motion
14.83272634 rev/d
Perigee alt
594.7 km
Apogee alt
643.3 km
Semi-major
6,997.2 km
B*
1.6708e-4
RAAN
135.1702°
Arg perigee
258.7415°
Mean anomaly
100.9898°
Rev number
95,500

§ Raw data

HUANJING 1B (HJ-1B)1 33321U 08041B   26145.19929271  .00001328  00000+0  16708-3 0  99912 33321  97.6516 135.1702 0034702 258.7415 100.9898 14.83272634955009

JSON: /api/v1/satellites/33321 · /tle

For live sub-satellite position, see the globe view (requires WebGL).

§ Visibility from observer

Set your observer location to see the next 7 days of passes ≥ 10°. The values pass through the URL so the page stays shareable.

No JS? Fill the form by hand. The geolocation button needs JavaScript.

§ Radio — SatNOGS DB

ModeDescriptionDownlinkUplink
FM Mode X1 8.140 GHz
FM Mode X2 8.260 GHz
BPSK Telemetry 2.210 GHz

3 transmitters · refreshed weekly from db.satnogs.org